Location: Alvediston
(51.0078°N, 2.0364°W)
Time: 19:52:52
(UTC+00:00)

Sich 1 - Pass Details

Date: 27 February 2020
Orbit: 595 x 624 km, 82.5° (Epoch: 07 April)

Event Time Altitude Azimuth Distance (km) Brightness Sun altitude
Rises 18:15:45 0° 203° (SSW) 2,832 6.9 -5.7°
Reaches altitude 10° 18:18:00 10° 208° (SSW) 1,932 6.1 -6.0°
Maximum altitude 18:22:09 50° 285° (WNW) 765 4.1 -6.7°
Drops below altitude 10° 18:26:21 10° 1° (N) 1,945 5.6 -7.3°
Sets 18:28:37 0° 7° (N) 2,854 6.4 -7.7°
